Regional Weather Roundup
Issued by NWS

Home | Current Version | Previous Version | Graphics & Text | Print | Product List | Glossary Off
Versions: 1 2 3 4 5 6 7 8 9 10 11 12 13 14 15 16 17 18 19 20 21 22 23 24 25 26 27 28 29 30 31 32 33 34 35 36 37 38 39 40 41 42 43 44 45 46 47 48 49 50

000
ASUS45 KCYS 262110
RWRWY

WYOMING REGIONAL WEATHER ROUNDUP
NATIONAL WEATHER SERVICE CHEYENNE WY
300 PM MDT THU MAY 26 2016

NOTE:  "FAIR" INDICATES FEW OR NO CLOUDS BELOW 12,000 FEET
WITH NO SIGNIFICANT WEATHER AND/OR OBSTRUCTIONS TO VISIBILITY.

WYZ001-262200-
YELLOWSTONE NATIONAL PARK

CITY           SKY/WX    TMP DP  RH WIND       PRES   REMARKS
LK YELLOWSTONE   N/A     46  33  60 VRB7      30.08F
W YELLOWSTONE  NOT AVBL

$$
WYZ002>013-054>058-071-098>099-262200-
NORTHERN WYOMING

CITY           SKY/WX    TMP DP  RH WIND       PRES   REMARKS
JACKSON        MOSUNNY   59  34  38 SW8       30.00F
CODY           PTSUNNY   52  45  76 NW7       29.97F
GREYBULL       LGT RAIN  53  46  77 N8        29.95R
WORLAND        PTSUNNY   63  38  39 VRB5      29.93F
SHERIDAN       FAIR      57  43  59 NW16      29.93R
BUFFALO        CLOUDY    59  40  49 N13G25    29.95S
GILLETTE       FAIR      63  37  38 W12G20    29.91F
HULETT         MOCLDY    63  37  39 SW8G22    29.90F
NEWCASTLE      FAIR      64  30  27 W20       29.90F

$$
WYZ014>020-022>026-101>103-262200-
CENTRAL WYOMING

CITY           SKY/WX    TMP DP  RH WIND       PRES   REMARKS
BIG PINEY      PTSUNNY   61  27  27 NW8       30.01F
PINEDALE       MOCLDY    55  32  41 NW13G18   30.01F
DUBOIS         FAIR      59  23  25 N13G21    29.98F
LANDER         FAIR      64  34  32 VRB3      29.92F
RIVERTON       FAIR      64  29  26 E7        29.94F
CASPER         FAIR      64  38  38 N13G18    29.93F
DOUGLAS          N/A    N/A N/A N/A MISG      29.92F

$$
WYZ021-027>030-104>119-262200-
SOUTHERN WYOMING

CITY           SKY/WX    TMP DP  RH WIND       PRES   REMARKS
EVANSTON       FAIR      57  29  34 NW12      30.03S
KEMMERER         N/A     57  34  41 NW16G23   30.02F
FORT BRIDGER   CLEAR     59  28  31 NW5       30.05F
ROCK SPRINGS   FAIR      60  25  26 NW13G18   29.98F
DIXON          FAIR      62  28  27 NW8       29.96F
RAWLINS        FAIR      60  27  28 W8        29.96F
SARATOGA       CLOUDY    55  30  38 W3        29.98F
LARAMIE        TSTM      42  35  76 S15G30    29.97S
CHEYENNE       LGT RAIN  50  38  63 N8        30.00R
TORRINGTON     LGT RAIN  61  38  42 SW13G18   29.90R
PINE BLUFFS    LGT RAIN  52  39  62 N22G32    29.95R

$$



USA.gov is the U.S. government's official web portal to all federal, state and local government web resources and services.